Find Local Weather

World > North America > United States > Florida

Gainesville, Florida Regional Weather

Lat: 29.67N, Lon: 82.34W
Wx Zone: FLZ036
Feedback

Gainesville, FL Regional Weather

Expires:201904231900;;374448
ASUS42 KTBW 231816
RWRFL 
FLORIDA REGIONAL WEATHER ROUNDUP
NATIONAL WEATHER SERVICE TAMPA BAY RUSKIN FL
200 PM EDT TUE APR 23 2019

NOTE: "FAIR" INDICATES FEW OR NO CLOUDS BELOW 12,000 FEET WITH NO
SIGNIFICANT WEATHER AND/OR OBSTRUCTIONS TO VISIBILITY.


FLZ011-016>038-118-127-128-134-139-239-231900-
NORTH FLORIDA
  
CITY           SKY/WX    TMP DP  RH WIND       PRES   REMARKS
MARIANNA       FAIR      81  51  35 MISG      30.12F                  
TALLAHASSEE    PTSUNNY   84  50  30 S6        30.11F                  
PERRY          FAIR      83  49  30 SE3       30.12F                  
LIVE OAK       SUNNY     82  46  28 NE6       30.11F                  
CROSS CITY     FAIR      83  51  31 SW3       30.12F                  
LAKE CITY      FAIR      81  48  32 S6        30.12F                  
GAINESVILLE    FAIR      84  52  33 VRB6      30.15F                  
PALATKA        FAIR      81  50  34 E5        30.13F                  
MAYPORT NAS    FAIR      78  56  46 E9        30.13F                  
JACKSONVILLE   FAIR      82  48  30 E5        30.11F                  
JAX NAS        FAIR      81  47  30 CALM      30.13F                  
JAX CECIL      SUNNY     88  48  25 VRB6      30.12F                  
FERNANDINA BEA FAIR      78  58  49 SE9       30.13F                  
ST AUGUSTINE   FAIR      77  58  51 E9        30.14F                  
PALM COAST     SUNNY     81  48  32 E10       30.13F                  

STATION/POSITION SKY/WX   TEMP    WIND        PRES    WAVE   SWELL
                          AIR SEA DIR/SP/G            HT/PER HT/PER
                          (F)     (DEG/KT/KT) (MB)    (FT/S) (FT/S)
SHELL POINT      NOT AVBL
KEATON BEACH               71     240/  8/  9 1020.4F
CEDAR KEY                  72     220/  5/  6 1020.4F
FERNANDINA                 81 69  150/  7/ 10 1020.8F
30.7N   81.3W                 70                N/A     2/ 9
MAYPORT                    75 70  100/  8/ 10 1020.5F
31.4N   80.9W              69 69  210/  6/  8 1020.4F   3/ 9   3/ 9
ST AUGUSTINE               73 75   90/  5/  6 1020.8F

$$

SKY/WX - Weather  TMP - Temperature  DP - Dew Point  RH - Relative Humidity
WIND - Wind Direction/Speed PRES - Barometric Pressure VSB - Visibility
WCI - Wind Chill Index E13G22 Wind - East Wind 13 mph/Gusts of 22 mph